Overview Statistics Trail Chart Weather Telemetry Raw packets
 

This is the latest recevied weather packets stored in our database for station/object KQ4WWD. If no packets are shown the sender has not sent any weather packets the latest 10 day(s).

<< 25 26 27 28 29 30 31 >>
Time Temp. Humidity Pressure Rain* Wind** Luminosity Snow
1788440220 25.56° C 95% 1014.7 hPa 0 mm - 35 W/m² -
1788439916 25.56° C 95% 1014.8 hPa 0 mm - 35 W/m² -
1788439615 25.56° C 95% 1015 hPa 0 mm - 36 W/m² -
1788439316 26.11° C 95% 1014.6 hPa 0 mm - 48 W/m² -
1788439015 25.56° C 95% 1014.9 hPa 0 mm - 38 W/m² -
1788438714 25.56° C 95% 1014.8 hPa 0 mm - 38 W/m² -
1788438413 25.56° C 95% 1015 hPa 0 mm - 32 W/m² -
1788438108 25.56° C 95% 1014.9 hPa 0 mm - 30 W/m² -
1788437807 25.56° C 95% 1014.9 hPa 0 mm - 26 W/m² -
1788437503 25.56° C 95% 1014.9 hPa 0 mm - 25 W/m² -
1788437202 25.56° C 95% 1014.9 hPa 0 mm - 23 W/m² -
1788436897 25.56° C 95% 1014.8 hPa 0 mm - 23 W/m² -
1788436595 25.56° C 95% 1014.8 hPa 0 mm - 26 W/m² -
1788436290 25.56° C 95% 1014.7 hPa 0 mm - 27 W/m² -
1788435985 25.56° C 95% 1014.9 hPa 0 mm - 18 W/m² -
1788435681 25.56° C 95% 1014.8 hPa 0 mm - 18 W/m² -
1788435376 25.56° C 95% 1014.5 hPa 0 mm - 19 W/m² -
1788435072 25° C 95% 1014.3 hPa 0 mm - 16 W/m² -
1788434769 25° C 95% 1014.3 hPa 0 mm - 12 W/m² -
1788434468 25° C 95% 1014.2 hPa 0 mm - 9 W/m² -
1788434167 25° C 95% 1014 hPa 0 mm - 6 W/m² -
1788433863 25° C 95% 1014 hPa 0 mm - 3 W/m² -
1788433560 25° C 95% 1014 hPa 0 mm - 0 W/m² -
1788433260 25° C 95% 1013.9 hPa 0 mm - 0 W/m² -
1788432955 25° C 95% 1013.8 hPa 0 mm - 0 W/m² -

* Rain latest hour (hover to see other rain measurements)
** Current wind speed in m/s (hover to see current wind gust speed)